Location: Baia de Cri?
(46.1667°N, 22.7167°E)
Time: 02:27:55
(UTC+00:00)

ACS3 Solar Sail - Visible Passes

Search period start: 09 March 2026 00:00
Search period end: 19 March 2026 00:00
Orbit: 887 x 973 km, 97.2° (Epoch: 8 March)

Date Brightness Start Highest point End Pass type
(mag) Time Alt. Az. Time Alt. Az. Time Alt. Az.
9 Mar 3.9 00:23:34 10° NNE 00:25:04 19° NNE 00:25:04 19° NNE visible
9 Mar 3.8 02:07:42 10° NNW 02:08:46 13° NNW 02:08:46 13° NNW visible
10 Mar 3.7 00:35:01 10° N 00:36:45 21° N 00:36:45 21° N visible
10 Mar 3.8 02:19:44 10° NNW 02:20:26 11° NW 02:20:26 11° NW visible
11 Mar 3.6 00:46:26 10° N 00:48:21 22° N 00:48:21 22° N visible
11 Mar 4.3 23:15:42 10° NNE 23:16:13 12° NE 23:16:13 12° NE visible
12 Mar 3.5 00:57:49 10° N 00:59:54 22° N 00:59:54 22° N visible
12 Mar 4.2 23:26:41 10° NNE 23:27:41 15° NE 23:27:41 15° NE visible
13 Mar 3.4 01:09:10 10° N 01:11:22 22° NNW 01:11:22 22° NNW visible
13 Mar 4.0 23:37:41 10° NNE 23:39:07 17° NNE 23:39:07 17° NNE visible
14 Mar 3.4 01:20:30 10° N 01:22:47 22° NNW 01:22:47 22° NNW visible
14 Mar 3.8 23:48:40 10° NNE 23:50:27 20° NNE 23:50:27 20° NNE visible
15 Mar 3.4 01:31:49 10° N 01:34:06 20° NNW 01:34:06 20° NNW visible
15 Mar 3.7 23:59:37 10° NNE 00:01:43 23° NNE 00:01:43 23° NNE visible
16 Mar 3.5 01:43:05 10° NNW 01:45:22 18° NNW 01:45:22 18° NNW visible
17 Mar 3.5 00:10:33 10° NNE 00:12:55 26° NNE 00:12:55 26° NNE visible
17 Mar 3.5 01:54:23 10° NNW 01:56:34 17° NW 01:56:34 17° NW visible
18 Mar 3.3 00:21:26 10° N 00:24:03 28° N 00:24:03 28° N visible
18 Mar 3.6 02:05:44 10° NNW 02:07:42 14° NW 02:07:42 14° NW visible
18 Mar 4.3 22:50:53 10° NE 22:51:28 12° NE 22:51:28 12° NE visible
